Home > Weather > Lagos > Past weeks

Flag for Nigeria Past Weather in Lagos, Nigeria — Yesterday and Last 2 Weeks

Now
79 °F

Drizzle. Partly sunny.


Feels Like: 82 °F
Forecast: 73 / 82 °F
Wind: 7 mph from Southwest

Location: Lagos / Ikeja

Current Time: Jul 30, 2016 at 4:04:58 PM

Latest Report: Jul 30, 2016 at 3:00 PM


Visibility: 4 mi

Pressure: 29.95 "Hg

Humidity: 89%

Dew Point: 75 °F

Location of LagosLocation

Past Weather in Lagos — Graph

°F

Lagos Temperature Yesterday

Maximum temperature yesterday: 84 °F (at 3:00 PM)
Minimum temperature yesterday: 75 °F (at 4:00 AM)
Average temperature yesterday: 79 °F

High & Low Weather Summary for the Past Weeks

 TemperatureHumidityPressure
High86 °F (Jul 15, 3:00 PM)100% (Jul 16, 5:00 AM)30.04 "Hg (Jul 16, 5:00 AM)
Low75 °F (Jul 16, 5:00 AM)62% (Jul 15, 5:00 PM)29.86 "Hg (Jul 16, 4:00 PM)
Average79 °F86%29.96 "Hg
* Reported Jul 15 3:00 PM — Jul 30 3:00 PM, Lagos, Weather by CustomWeather, © 2016

Note: Actual official high and low records may vary slightly from our data, if they occured in-between our weather recording intervals... More about our weather records

Advertising

Lagos Weather History for the Previous 24 Hours

Scroll right to see more
 ConditionsComfort  
Time TempWeatherWind HumidityBarometerVisibility
3:00 PM
Sat, Jul 30
79 °FDrizzle. Partly sunny.7 mph89%29.95 "Hg4 mi
2:00 PM79 °FDrizzle. Partly sunny.9 mph89%29.95 "Hg4 mi
1:00 PM82 °FPartly sunny.6 mph79%29.98 "HgN/A
12:00 PM84 °FPartly sunny.6 mph74%30.01 "HgN/A
11:00 AM82 °FPartly sunny.6 mph79%30.01 "HgN/A
10:00 AM81 °FPartly sunny.5 mph84%30.01 "HgN/A
9:00 AM79 °FScattered clouds.6 mph89%30.01 "HgN/A
8:00 AM77 °FScattered clouds.6 mph94%29.98 "Hg5 mi
7:00 AM75 °FScattered clouds.2 mph100%29.98 "Hg4 mi
6:00 AM75 °FPassing clouds.5 mph94%29.95 "HgN/A
5:00 AM75 °FPassing clouds.No wind94%29.95 "HgN/A
4:00 AM77 °FPassing clouds.5 mph94%29.95 "HgN/A
3:00 AM77 °FPassing clouds.No wind94%29.95 "HgN/A
2:00 AM77 °FPassing clouds.2 mph89%29.98 "HgN/A
1:00 AM77 °FPassing clouds.5 mph94%29.98 "HgN/A
12:00 AM77 °FPassing clouds.5 mph94%30.01 "HgN/A
11:00 PM
Fri, Jul 29
77 °FPassing clouds.No wind94%30.01 "HgN/A
10:00 PM77 °FPassing clouds.2 mph94%29.98 "HgN/A
9:00 PM79 °FPassing clouds.2 mph84%29.98 "HgN/A
8:00 PM79 °FPassing clouds.5 mph84%29.95 "HgN/A
7:00 PM79 °FScattered clouds.6 mph84%29.92 "HgN/A
6:00 PM79 °FPartly sunny.3 mph84%29.92 "HgN/A
5:00 PM82 °FPartly sunny.6 mph74%29.92 "HgN/A
4:00 PM82 °FPartly sunny.6 mph74%29.95 "HgN/A
Weather by CustomWeather, © 2016

See weather overviewHow to use our weather pages